Skip Page Navigation
NASA JPL Caltech
NASA Logo - Jet Propulsion Laboratory + View the NASA Portal
+ Near-Earth Object (NEO) Program
Search JPL
JPL Home Earth Solar System Stars & Galaxies Technology
JPL Solar System Dynamics
BODIES ORBITS EPHEMERIDES TOOLS PHYSICAL DATA DISCOVERY FAQ SITE MAP
JPL Small-Body Database Browser
Search: [ help ]  
55565 (2002 AW197)
Classification: TransNeptunian Object          SPK-ID: 2055565
Ephemeris | Orbit Diagram | Orbital Elements | Physical Parameters | Discovery Circumstances ]

[ show orbit diagram ]
Orbital Elements at Epoch 2456800.5 (2014-May-23.0) TDB
Reference: JPL 13 (heliocentric ecliptic J2000)
 Element Value Uncertainty (1-sigma)   Units 
e .1290934427014037 5.8567e-05  
a 47.47097074794598 0.0061611 AU
q 41.342779705716 0.0058757 AU
i 24.32984043580731 0.00032399 deg
node 297.4061948128095 0.0002655 deg
peri 293.4345714100271 0.043464 deg
M 291.7196030535864 0.041306 deg
tp 2479459.155294210720
(2076-Jun-04.65529421)
9.307 JED
period 119464.9748787716
327.08
23.258
0.06368
d
yr
n .003013435530918698 5.8666e-07 deg/d
Q 53.59916179017595 0.0069565 AU
  Orbit Determination Parameters
   # obs. used (total)      114  
   data-arc span      5846 days (16.01 yr)  
   first obs. used      1997-12-29  
   last obs. used      2013-12-31  
   planetary ephem.      DE431  
   SB-pert. ephem.      SB431-BIG16  
   condition code      3  
   fit RMS      .34032  
   data source      ORB  
   producer      Otto Matic  
   solution date      2014-Jun-10 09:08:25  

Additional Information
 Earth MOID = 40.4083 AU 
 T_jup = 5.568 
[ show covariance matrix ]

Ephemeris | Orbit Diagram | Orbital Elements | Physical Parameters | Discovery Circumstances ]

Physical Parameter Table
Parameter Symbol Value Units Sigma Reference Notes
absolute magnitude H 3.5 mag n/a MPO280075  
rotation period rot_per 8.86 h n/a Asteroid Lightcurve DataBase (Rev. 2013-Sep-12) Result based on less than full coverage, so that the period may be wrong by 30 percent or so.
Published Reference List:
[Ortiz, J.L.; Gutierrez, P.J.; Santos-Sanz, P.; Casanova, V.; Sota, A. (2006) Astron. Astrophys. 447, 1131-1144.]
[Thirouin, A.; Ortiz, J.L.; Duffard, R.; Santos-Sanz, P.; et al. (2010) Astron. Astrophys. 522, A93.]

55565 (2002 AW197)          Discovered 2002-Jan-10 by Palomar at Palomar (675)
Reference: 20030216/Numbers.arcLast Updated: 2004-04-19
Ephemeris | Orbit Diagram | Orbital Elements | Physical Parameters | Discovery Circumstances ]
ABOUT SSD CREDITS/AWARDS PRIVACY/COPYRIGHT GLOSSARY LINKS
FirstGov 2014-Jul-29 18:52 UT
(server date/time)  
NASA Home Page
Site Manager:   Donald K. Yeomans
Webmaster  Alan B. Chamberlin